Wind_Speed
31 31 32 32 32 30 30 29 28 28 27 28 29 31 33 37 35 34 28 21 24 29 28 28 29 27 29 31 33 33 39 45 42 40 37 24 14 9 13 15 12 6 17 18 20
32 33 34 34 34 33 33 33 31 30 29 28 29 31 32 37 39 35 24 26 26 30 28 27 27 28 34 33 33 38 47 49 44 38 30 23 21 17 17 17 12 10 24 26 25
34 35 35 36 36 36 36 36 35 34 32 30 30 31 33 35 37 30 30 28 27 29 27 28 27 33 36 36 38 42 49 45 41 36 27 23 22 11 15 19 20 12 18 25 31
36 37 37 37 38 39 39 38 38 37 35 34 32 32 34 36 25 20 29 30 28 29 30 29 30 35 38 43 39 42 43 42 38 33 30 29 21 11 11 16 18 18 13 22 38
37 38 39 40 40 41 41 41 40 38 37 36 36 36 38 42 32 19 18 21 23 28 27 28 33 35 39 40 36 43 40 40 35 34 35 31 20 19 18 25 22 19 15 14 42
38 39 40 41 42 42 42 41 41 40 38 37 37 39 45 54 22 31 32 27 21 21 25 29 30 29 31 33 36 38 39 34 34 35 37 35 29 26 26 30 31 25 16 8 14
41 41 41 41 41 41 41 41 38 35 36 36 39 42 51 57 29 27 43 37 30 23 21 21 22 32 33 31 33 29 22 27 32 33 40 34 31 35 30 32 37 34 20 12 9
43 42 41 40 39 39 39 39 34 32 33 33 36 42 57 49 34 37 29 40 40 33 23 21 22 29 34 29 22 29 24 30 30 28 44 30 46 38 32 35 40 36 28 21 14
43 42 41 39 38 37 37 36 30 28 32 31 36 38 52 38 35 27 36 37 37 37 30 23 20 33 33 33 27 35 34 37 29 28 33 33 41 42 38 38 39 40 37 31 25
42 40 37 36 34 34 35 34 28 28 29 30 32 32 34 18 19 17 36 35 36 37 28 29 26 37 40 41 31 27 32 26 35 28 30 34 38 36 34 40 39 43 41 38 36
39 37 36 34 34 32 33 33 27 29 28 29 30 34 31 13 16 22 23 42 41 36 40 34 33 44 46 44 38 25 24 24 30 26 29 34 36 34 35 37 38 46 44 42 39
37 36 36 35 34 31 30 27 22 18 32 29 32 37 28 26 28 22 26 48 50 49 34 34 46 34 38 43 39 30 27 28 22 23 30 34 38 37 34 38 41 43 45 40 41
38 38 37 35 34 29 21 18 15 18 29 36 32 33 30 30 36 26 27 52 52 51 46 44 33 34 33 44 42 41 33 28 17 25 26 33 38 39 40 44 45 44 47 45 43
40 38 35 35 32 28 19 15 17 13 19 33 12 5 7 21 38 33 33 42 44 52 47 35 23 36 35 46 44 41 37 28 23 16 20 22 15 36 36 41 43 48 45 48 50
37 35 35 33 32 27 17 15 12 10 5 7 11 6 27 20 22 43 36 42 43 45 49 36 37 29 39 43 41 39 33 33 26 23 22 18 11 41 34 38 35 39 47 44 48
36 36 34 20 18 16 10 10 7 4 7 8 16 32 30 9 25 13 40 39 32 39 43 30 23 34 30 37 34 28 27 29 22 27 11 23 13 43 43 36 27 22 26 37 37
33 25 30 24 18 15 12 9 4 5 7 5 22 35 38 5 23 22 36 39 25 32 34 43 28 26 27 35 29 30 28 9 7 6 13 11 15 44 12 15 26 17 19 20 20
28 20 27 24 21 14 12 9 8 6 10 16 19 27 22 5 26 27 35 43 37 24 30 34 23 34 32 38 37 36 37 11 5 5 7 13 21 25 22 19 22 21 27 23 22
26 21 24 32 25 16 8 10 6 8 7 19 27 13 21 8 12 28 28 43 45 32 19 30 21 30 33 34 36 32 34 31 15 15 8 20 28 32 27 23 22 26 20 16 23
24 19 29 34 31 25 10 16 22 19 14 17 24 5 16 4 11 18 18 32 43 38 28 18 18 22 35 33 25 34 33 24 24 6 5 2 11 5 9 18 22 23 16 27 13
21 24 28 39 29 23 13 19 21 5 4 8 11 18 15 6 12 13 16 22 41 40 34 10 9 26 29 35 37 39 34 30 23 11 5 1 10 12 16 17 27 22 29 22 18
24 26 24 39 33 34 31 23 17 13 4 8 12 16 7 11 10 14 15 19 41 46 40 29 2 2 29 33 34 30 35 26 17 5 6 3 15 23 18 9 32 31 29 26 30
21 24 19 40 40 40 28 20 13 14 16 10 8 5 9 5 8 21 20 19 35 43 33 31 7 6 12 26 28 40 35 37 22 20 17 6 6 10 8 21 28 30 33 34 30
24 26 26 38 37 36 31 20 14 16 11 18 7 10 9 10 10 18 20 26 25 43 22 28 15 7 6 20 13 30 32 25 29 19 15 22 21 24 10 34 34 35 33 29 25
24 22 28 39 43 37 30 20 20 19 25 24 15 20 8 3 9 20 24 28 27 37 31 18 10 12 7 8 10 7 22 26 20 22 13 22 21 15 27 26 26 29 27 24 21
25 25 24 32 40 39 29 22 17 19 24 28 25 15 9 5 11 23 32 15 29 32 33 20 15 14 7 9 5 8 8 16 14 14 25 25 22 10 28 28 31 30 26 22 21
27 22 23 29 39 38 30 19 19 16 21 26 22 23 8 2 15 28 18 22 25 33 33 22 18 16 9 14 9 7 4 12 11 9 14 24 21 34 32 37 29 28 27 17 15
Wind_Direction
303 302 301 299 296 294 292 290 288 284 280 274 270 269 260 251 247 248 249 247 240 242 233 232 224 222 220 211 212 212 219 228 227 232 232 221 242 263 268 264 312 198 238 218 260
303 301 299 296 295 292 290 290 287 284 280 276 272 271 266 256 250 244 246 240 238 238 241 236 229 218 222 219 212 212 221 227 228 229 237 224 234 294 284 238 274 229 225 240 232
303 301 298 296 294 292 289 287 286 284 281 276 273 269 267 262 257 248 251 244 235 236 233 234 221 217 217 220 214 215 225 230 233 227 226 219 227 266 281 256 258 235 222 202 189
304 301 298 296 293 290 290 287 284 282 280 277 271 266 263 260 255 249 247 244 237 230 227 225 223 217 215 217 215 221 227 229 231 226 213 228 249 236 245 248 248 243 245 214 187
305 302 300 296 293 291 289 286 283 281 278 274 272 268 260 255 244 235 233 223 229 223 222 227 220 221 219 220 215 225 228 228 231 226 216 227 237 250 231 223 230 222 243 268 220
305 302 299 297 295 293 291 287 287 284 280 274 268 264 262 258 247 227 232 220 212 214 211 216 223 225 233 230 223 227 231 231 229 228 218 229 238 242 223 223 226 218 217 259 308
307 304 300 298 297 295 293 290 288 286 281 275 269 264 261 259 250 240 229 226 217 204 199 206 210 215 218 228 234 232 238 237 229 222 218 233 246 242 226 223 219 224 227 220 223
310 306 303 302 299 296 293 292 295 290 282 272 267 263 264 264 253 236 237 226 229 221 217 196 204 214 216 216 217 220 217 232 224 216 215 237 246 234 238 228 223 227 233 227 222
314 309 307 303 301 299 296 294 296 291 278 275 266 266 269 280 262 241 228 223 217 226 207 197 206 211 210 206 204 205 221 228 236 221 227 239 249 246 244 239 237 231 241 231 219
315 312 309 305 302 300 299 298 300 290 285 278 268 262 257 264 272 222 217 206 208 214 194 193 210 207 204 201 211 212 221 229 231 224 233 243 253 255 254 244 240 240 245 244 230
322 318 314 313 309 308 301 302 308 298 285 279 264 263 257 225 207 184 204 196 189 199 198 193 205 210 202 200 204 213 215 230 234 231 238 244 254 256 256 258 243 241 249 250 236
328 323 319 317 313 310 309 312 304 290 292 279 274 270 268 226 231 190 192 190 189 193 197 197 215 215 202 201 204 204 214 228 232 235 237 248 257 257 263 262 256 249 251 253 247
329 326 324 318 313 311 319 306 280 292 296 290 293 280 273 271 235 198 192 188 193 189 192 199 218 212 206 201 204 207 209 215 227 243 237 239 246 251 261 262 258 260 250 254 246
333 331 323 316 312 316 318 283 280 289 299 307 335 353 10 259 235 196 194 191 193 194 192 205 202 209 206 205 204 212 207 214 226 245 221 236 259 251 258 259 252 260 245 248 242
339 330 324 321 322 319 309 277 244 237 283 323 332 197 4 226 207 197 190 183 194 193 188 196 203 205 211 207 204 214 206 219 229 251 225 219 255 261 264 261 249 245 244 237 231
341 341 340 343 330 335 326 245 179 187 250 297 320 325 316 290 211 171 194 187 185 195 201 199 213 211 214 204 205 199 206 220 236 245 236 228 251 274 264 232 239 239 224 219 215
346 356 10 10 353 330 328 246 179 203 307 295 335 323 317 301 185 190 194 190 183 178 195 204 203 211 204 204 200 203 206 212 214 202 236 241 244 246 242 245 245 241 238 235 229
353 1 3 350 345 317 326 255 236 255 288 321 330 324 335 61 187 188 183 189 192 193 182 191 212 206 196 205 198 205 205 181 168 206 247 263 253 254 263 266 247 272 263 256 236
359 7 3 5 355 328 289 216 261 282 270 312 326 319 354 117 178 198 186 193 190 182 169 189 210 201 201 196 200 205 209 213 216 233 214 233 261 280 278 261 260 267 270 218 210
5 4 21 9 6 347 273 256 287 302 279 295 294 301 355 22 181 186 173 193 194 199 187 177 197 203 201 205 209 211 212 200 223 161 239 268 323 342 284 246 231 242 204 170 183
1 12 9 14 13 2 283 307 331 18 272 304 295 304 317 19 188 178 190 176 191 189 186 179 183 202 207 210 211 203 206 211 217 211 175 58 263 341 331 272 212 198 174 179 174
15 25 16 14 11 9 354 354 353 44 348 298 280 288 293 7 190 184 193 182 191 184 204 213 248 205 204 206 209 219 212 201 196 173 175 173 261 286 342 247 203 176 172 182 180
7 19 19 15 16 10 14 14 352 9 341 306 295 315 333 337 163 194 201 168 190 199 209 209 229 273 177 198 210 211 213 216 218 198 189 164 282 247 46 182 176 165 166 171 179
3 14 22 16 20 13 8 25 38 39 16 12 329 347 9 79 141 170 187 189 185 196 200 206 214 242 173 181 176 197 210 208 221 208 195 212 228 282 170 138 147 153 162 170 183
9 18 14 5 15 16 27 31 41 33 35 24 348 355 324 62 133 160 182 183 176 202 192 205 188 190 174 178 194 193 214 222 229 211 189 199 192 236 158 142 141 149 157 165 185
16 10 16 19 16 21 28 37 25 27 27 16 22 14 31 90 151 166 181 193 170 183 182 180 174 195 160 169 183 173 169 217 223 213 227 200 189 192 161 153 140 155 164 182 176
8 12 16 16 23 23 21 28 45 26 18 14 4 6 2 265 161 164 149 140 159 173 184 190 184 180 157 166 147 118 60 151 134 147 184 187 183 167 168 161 160 159 158 159 182
Height
3104 3100 3097 3094 3092 3089 3086 3085 3083 3082 3080 3079 3077 3077 3076 3075 3077 3080 3086 3092 3090 3088 3092 3096 3101 3107 3108 3110 3114 3119 3117 3113 3119 3124 3129 3141 3144 3146 3147 3149 3148 3149 3150 3151 3156
3098 3095 3091 3087 3085 3082 3080 3077 3075 3073 3072 3071 3070 3069 3068 3066 3068 3074 3083 3082 3083 3082 3087 3091 3096 3100 3101 3105 3108 3110 3106 3107 3115 3124 3130 3137 3139 3142 3145 3145 3145 3146 3146 3149 3153
3092 3088 3084 3080 3077 3074 3071 3069 3068 3066 3065 3063 3062 3060 3059 3058 3060 3070 3070 3075 3077 3077 3081 3083 3088 3091 3094 3100 3100 3101 3099 3107 3113 3121 3130 3133 3133 3137 3143 3142 3142 3142 3143 3143 3146
3085 3080 3076 3073 3069 3066 3063 3061 3058 3057 3056 3055 3053 3051 3049 3049 3057 3059 3061 3065 3068 3071 3073 3077 3080 3083 3086 3088 3096 3097 3098 3104 3110 3118 3126 3126 3130 3133 3138 3139 3139 3141 3140 3143 3141
3077 3072 3068 3063 3060 3057 3054 3051 3049 3048 3046 3046 3045 3043 3038 3035 3047 3055 3055 3056 3059 3063 3068 3072 3073 3077 3079 3084 3092 3089 3095 3101 3109 3114 3118 3121 3124 3127 3132 3134 3134 3134 3136 3137 3136
3069 3063 3058 3054 3050 3047 3043 3040 3039 3038 3037 3035 3033 3031 3027 3016 3048 3048 3047 3048 3052 3057 3061 3064 3070 3077 3079 3082 3085 3086 3092 3098 3103 3107 3113 3114 3118 3121 3126 3128 3132 3133 3134 3135 3128
3059 3053 3048 3044 3040 3036 3032 3028 3027 3026 3025 3024 3022 3018 3010 3005 3034 3035 3035 3044 3047 3051 3055 3060 3068 3070 3075 3077 3081 3084 3089 3093 3094 3100 3105 3109 3110 3111 3120 3121 3123 3130 3131 3137 3140
3050 3044 3039 3034 3030 3025 3021 3016 3017 3015 3014 3012 3010 3006 2990 3003 3022 3021 3032 3035 3040 3047 3053 3055 3061 3065 3066 3072 3075 3080 3084 3083 3088 3096 3097 3106 3095 3106 3113 3116 3114 3121 3126 3132 3137
3042 3035 3030 3025 3020 3016 3011 3007 3008 3006 3001 3002 2999 2997 2986 3001 3006 3019 3016 3020 3034 3040 3047 3050 3052 3056 3064 3066 3071 3071 3070 3076 3084 3089 3094 3097 3093 3100 3107 3111 3111 3112 3119 3125 3133
3032 3026 3020 3015 3011 3006 3002 2999 3000 2996 2993 2992 2990 2991 2991 2996 2997 3000 3002 3016 3022 3032 3040 3040 3043 3046 3052 3055 3055 3064 3070 3075 3079 3085 3090 3091 3090 3095 3101 3105 3107 3106 3111 3117 3124
3025 3019 3013 3008 3004 3000 2995 2992 2994 2988 2984 2983 2980 2976 2984 2987 2985 2991 2996 3006 3016 3022 3024 3031 3035 3029 3042 3050 3058 3065 3070 3075 3080 3085 3087 3086 3088 3091 3096 3100 3102 3103 3104 3110 3117
3020 3013 3007 3002 2997 2993 2990 2987 2984 2982 2972 2973 2972 2968 2970 2982 2978 2984 2987 2997 3002 3006 3020 3028 3019 3033 3045 3050 3056 3061 3066 3070 3077 3081 3084 3084 3084 3089 3091 3094 3096 3099 3099 3102 3110
3015 3008 3001 2995 2990 2986 2985 2982 2978 2976 2969 2959 2962 2959 2963 2969 2968 2977 2981 2990 2996 3004 3007 3012 3022 3033 3039 3046 3051 3054 3058 3068 3074 3078 3080 3081 3079 3082 3085 3087 3088 3090 3093 3096 3101
3010 3002 2994 2987 2983 2979 2978 2976 2974 2973 2967 2956 2954 2954 2954 2957 2954 2968 2973 2985 2993 2997 3008 3016 3021 3025 3032 3036 3045 3047 3057 3067 3072 3076 3075 3077 3072 3073 3078 3078 3081 3082 3085 3089 3094
3005 2996 2989 2981 2977 2974 2973 2969 2968 2972 2970 2958 2950 2946 2944 2949 2953 2957 2970 2975 2985 2990 3003 3005 3014 3021 3025 3029 3042 3046 3058 3065 3071 3074 3074 3072 3071 3060 3072 3067 3066 3069 3074 3082 3088
3001 2992 2983 2979 2975 2972 2969 2968 2969 2973 2964 2955 2952 2947 2942 2939 2944 2956 2963 2975 2986 2994 3002 3008 3015 3020 3022 3033 3040 3050 3058 3065 3069 3069 3064 3067 3069 3050 3058 3055 3060 3063 3068 3075 3081
2998 2991 2984 2977 2976 2972 2969 2970 2971 2966 2960 2956 2950 2943 2940 2935 2940 2951 2961 2967 2976 2987 2995 3005 3009 3016 3023 3031 3040 3047 3054 3061 3067 3064 3054 3067 3070 3048 3049 3055 3057 3060 3065 3072 3076
2998 2992 2987 2982 2975 2971 2968 2970 2967 2958 2957 2954 2949 2943 2937 2935 2940 2949 2959 2967 2976 2982 2992 2999 3006 3009 3014 3022 3030 3038 3044 3049 3057 3058 3057 3065 3050 3043 3049 3051 3054 3057 3060 3066 3072
2999 2993 2988 2981 2975 2969 2967 2966 2961 2959 2956 2952 2947 2942 2938 2938 2942 2950 2954 2963 2971 2979 2988 2995 3002 3007 3013 3020 3030 3035 3040 3050 3052 3055 3059 3053 3047 3043 3046 3047 3049 3053 3055 3063 3070
2998 2994 2989 2980 2973 2967 2965 2961 2957 2954 2953 2950 2946 2943 2943 2941 2943 2947 2954 2962 2971 2980 2989 2992 3002 3005 3011 3022 3028 3031 3040 3045 3047 3055 3054 3046 3047 3045 3041 3043 3048 3050 3056 3062 3067
2999 2993 2989 2981 2974 2969 2965 2960 2954 2952 2951 2950 2946 2944 2944 2943 2944 2948 2955 2961 2969 2978 2985 2992 2998 3004 3011 3013 3017 3024 3031 3038 3045 3047 3048 3053 3047 3045 3043 3039 3045 3051 3056 3063 3068
2999 2994 2990 2982 2977 2969 2965 2958 2953 2949 2948 2946 2943 2942 2943 2944 2946 2950 2954 2961 2968 2976 2983 2990 2997 2998 3005 3011 3017 3023 3029 3034 3037 3043 3044 3044 3043 3046 3041 3038 3045 3050 3056 3063 3069
2999 2995 2990 2986 2975 2969 2963 2959 2954 2950 2945 2943 2940 2941 2942 2944 2948 2951 2956 2963 2971 2977 2983 2991 2998 3000 3003 3012 3013 3018 3024 3030 3034 3034 3035 3039 3044 3049 3047 3049 3048 3050 3058 3063 3068
2999 2993 2991 2987 2980 2973 2966 2961 2957 2954 2949 2944 2945 2943 2943 2945 2947 2952 2957 2964 2971 2978 2986 2992 2998 3000 3003 3006 3011 3015 3021 3026 3029 3028 3031 3034 3042 3053 3054 3051 3052 3054 3059 3063 3067
3002 2998 2994 2986 2978 2974 2970 2965 2962 2958 2955 2951 2947 2946 2945 2945 2947 2953 2960 2965 2970 2976 2986 2992 2997 2999 3000 3004 3009 3013 3018 3021 3024 3025 3029 3037 3040 3041 3048 3051 3055 3058 3061 3064 3067
3005 3000 2998 2991 2983 2976 2972 2968 2965 2962 2958 2955 2950 2947 2947 2947 2948 2954 2962 2967 2969 2978 2986 2991 2995 2999 3001 3006 3009 3014 3017 3017 3017 3023 3028 3031 3034 3040 3045 3053 3057 3060 3063 3068 3069
3006 3004 2999 2994 2986 2980 2977 2973 2971 2967 2961 2955 2954 2952 2950 2950 2950 2957 2964 2966 2971 2978 2983 2991 2995 3000 3005 3005 3010 3016 3017 3019 3019 3023 3024 3027 3030 3039 3049 3053 3057 3061 3064 3070 3071